Weather History for Nice, France

Change the Weather History Date:

Saturday, January 11, 2014

  Actual Average Record
Temperature  
Mean Temperature 55 °F -  
Max Temperature 61 °F 54 °F 72 °F (2015)
Min Temperature 49 °F 39 °F 35 °F (1999)
Degree Days  
Heating Degree Days 10    
Growing Degree Days 5 (Base 50)    
Moisture  
Dew Point 44 °F    
Average Humidity 68    
Maximum Humidity 77    
Minimum Humidity 49    
Precipitation  
Precipitation 0.00 in 0.11 in - ()
Sea Level Pressure  
Sea Level Pressure 30.15 in    
Wind  
Wind Speed 8 mph ()    
Max Wind Speed 12 mph    
Max Gust Speed -    
Visibility 9.0 miles    
Events      
Averages and records for this station are not official NWS values.
T = Trace of Precipitation, MM = Missing Value Source: Averaged Metar Reports

Daily Weather History Graph

Daily Weather History Graph

Search for Another Location

Airport:

Trip Planner

Search our weather history database for the weather conditions in past years. The results will help you decide how hot, cold, wet, or windy it might be!

Date:

Astronomy

Jan. 11, 2014 Rise Set
Actual Time 8:03 AM CET 5:15 PM CET
Civil Twilight 7:31 AM CET 5:47 PM CET
Nautical Twilight 6:55 AM CET 6:22 PM CET
Astronomical Twilight 6:21 AM CET 6:57 PM CET
Moon 1:49 PM CET (1/11) 3:51 AM CET (1/11)
Length of Visible Light 10h 15m
Length of Day
9h 11m
Waxing Gibbous, 81% of the Moon is Illuminated
Jan 11
Waxing Gibbous
Jan 16
Full
Jan 24
Last Quarter
Jan 30
New
Feb 6
First Quarter

Hourly Weather History & Observations

Time (CET) Temp. Dew Point Humidity Pressure Visibility Wind Dir Wind Speed Gust Speed Precip Events Conditions
12:00 AM 50 °F 42 °F 67% 30.15 in 12 mi NNW 10.4 mph - -   Overcast
12:00 AM 50.0 °F 42.8 °F 76% 30.15 in 6.2 mi NNW 9.2 mph - N/A   Overcast
12:30 AM 50.0 °F 42.8 °F 76% 30.15 in 6.2 mi NNW 11.5 mph - N/A   Overcast
1:00 AM 50 °F 42 °F 66% 30.16 in 12 mi NNW 9.2 mph - -   Overcast
1:00 AM 50.0 °F 42.8 °F 76% 30.15 in 6.2 mi NNW 9.2 mph - N/A   Overcast
1:30 AM 50.0 °F 41.0 °F 71% 30.15 in 6.2 mi NNW 10.4 mph - N/A   Overcast
2:00 AM 50 °F 42 °F 64% 30.17 in 12 mi NNW 10.4 mph - -   Overcast
2:00 AM 50.0 °F 41.0 °F 71% 30.15 in 6.2 mi NNW 11.5 mph - N/A   Overcast
2:30 AM 50.0 °F 41.0 °F 71% 30.15 in 6.2 mi NNW 10.4 mph - N/A   Overcast
3:00 AM 49 °F 41 °F 66% 30.17 in 12 mi NNW 10.4 mph - -   Overcast
3:00 AM 50.0 °F 41.0 °F 71% 30.15 in 6.2 mi NNW 10.4 mph - N/A   Overcast
3:30 AM 50.0 °F 41.0 °F 71% 30.15 in 6.2 mi NNW 9.2 mph - N/A   Overcast
4:00 AM 50 °F 41 °F 62% 30.16 in 12 mi NNW 10.4 mph - -   Overcast
4:00 AM 50.0 °F 41.0 °F 71% 30.15 in 6.2 mi NNW 10.4 mph - N/A   Overcast
4:30 AM 50.0 °F 41.0 °F 71% 30.15 in 6.2 mi NNW 11.5 mph - N/A   Overcast
5:00 AM 50 °F 41 °F 63% 30.16 in 12 mi NNW 9.2 mph - -   Overcast
5:00 AM 50.0 °F 41.0 °F 71% 30.15 in 6.2 mi NNW 9.2 mph - N/A   Overcast
5:30 AM 50.0 °F 41.0 °F 71% 30.12 in 6.2 mi NNW 10.4 mph - N/A   Overcast
6:00 AM 50 °F 41 °F 61% 30.15 in 12 mi NNW 10.4 mph - -   Overcast
6:00 AM 50.0 °F 41.0 °F 71% 30.12 in 6.2 mi NNW 10.4 mph - N/A   Overcast
6:30 AM 50.0 °F 41.0 °F 71% 30.15 in 6.2 mi NNW 10.4 mph - N/A   Overcast
7:00 AM 49 °F 40 °F 64% 30.16 in 12 mi NNW 9.2 mph - -   Mostly Cloudy
7:00 AM 50.0 °F 41.0 °F 71% 30.15 in 6.2 mi NNW 10.4 mph - N/A   Mostly Cloudy
7:30 AM 50.0 °F 41.0 °F 71% 30.15 in 6.2 mi NNW 10.4 mph - N/A   Mostly Cloudy
8:00 AM 49 °F 40 °F 62% 30.17 in 19 mi NNW 10.4 mph - -   Mostly Cloudy
8:00 AM 50.0 °F 41.0 °F 71% 30.15 in 6.2 mi NNW 10.4 mph - N/A   Mostly Cloudy
8:30 AM 50.0 °F 39.2 °F 66% 30.15 in 6.2 mi NNW 11.5 mph - N/A   Mostly Cloudy
9:00 AM 49 °F 40 °F 62% 30.17 in 19 mi NNW 9.2 mph - -   Mostly Cloudy
9:00 AM 50.0 °F 41.0 °F 71% 30.15 in 6.2 mi North 10.4 mph - N/A   Mostly Cloudy
9:24 AM 51.8 °F 41.0 °F 67% 30.15 in 6.2 mi NNW 11.5 mph - N/A   Mostly Cloudy
10:00 AM 53 °F 41 °F 52% 30.18 in 19 mi NNW 9.2 mph - -   Scattered Clouds
10:00 AM 53.6 °F 41.0 °F 62% 30.15 in 6.2 mi NNW 9.2 mph - N/A   Mostly Cloudy
10:30 AM 51.8 °F 41.0 °F 67% 30.15 in 6.2 mi NNW 9.2 mph - N/A   Mostly Cloudy
11:00 AM 53 °F 42 °F 55% 30.19 in 19 mi NNW 8.1 mph - -   Scattered Clouds
11:00 AM 53.6 °F 41.0 °F 62% 30.18 in 6.2 mi NNW 8.1 mph - N/A   Mostly Cloudy
11:30 AM 55.4 °F 42.8 °F 63% 30.18 in 6.2 mi NW 11.5 mph - N/A   Mostly Cloudy
11:53 AM 57.2 °F 42.8 °F 59% 30.15 in 6.2 mi NNW 8.1 mph - N/A   Mostly Cloudy
12:00 PM 56 °F 42 °F 49% 30.18 in 19 mi NW 10.4 mph - -   Scattered Clouds
12:24 PM 57.2 °F 42.8 °F 59% 30.15 in 6.2 mi NNW 8.1 mph - N/A   Mostly Cloudy
1:00 PM 59 °F 47 °F 56% 30.16 in 19 mi ENE 5.8 mph - -   Scattered Clouds
1:00 PM 59.0 °F 48.2 °F 67% 30.15 in 6.2 mi ENE 6.9 mph - N/A   Mostly Cloudy
1:30 PM 60.8 °F 48.2 °F 63% 30.15 in 6.2 mi East 3.5 mph - N/A   Mostly Cloudy
2:00 PM 60 °F 49 °F 56% 30.16 in 19 mi ESE 1.2 mph - -   Scattered Clouds
2:00 PM 60.8 °F 48.2 °F 63% 30.15 in 6.2 mi East 2.3 mph - N/A   Scattered Clouds
2:21 PM 59.0 °F 48.2 °F 67% 30.12 in 6.2 mi Calm Calm - N/A   Mostly Cloudy
3:00 PM 62 °F 48 °F 50% 30.15 in 19 mi Calm Calm - -   Scattered Clouds
3:00 PM 62.6 °F 48.2 °F 59% 30.12 in 6.2 mi Calm Calm - N/A   Mostly Cloudy
3:30 PM 60.8 °F 48.2 °F 63% 30.12 in 6.2 mi Variable 1.2 mph - N/A   Mostly Cloudy
4:00 PM 58 °F 49 °F 64% 30.14 in 19 mi East 6.9 mph - -   Scattered Clouds
4:00 PM 59.0 °F 48.2 °F 67% 30.12 in 6.2 mi East 6.9 mph - N/A   Mostly Cloudy
4:05 PM 57.2 °F 48.2 °F 72% 30.12 in 6.2 mi East 6.9 mph - N/A   Mostly Cloudy
4:30 PM 57.2 °F 50.0 °F 77% 30.12 in 6.2 mi East 9.2 mph - N/A   Scattered Clouds
4:53 PM 57.2 °F 50.0 °F 77% 30.12 in 6.2 mi East 9.2 mph - N/A   Mostly Cloudy
5:00 PM 57 °F 49 °F 67% 30.15 in 12 mi East 8.1 mph - -   Mostly Cloudy
5:30 PM 57.2 °F 50.0 °F 77% 30.12 in 6.2 mi East 8.1 mph - N/A   Mostly Cloudy
6:00 PM 58 °F 50 °F 67% 30.16 in 12 mi East 10.4 mph - -   Mostly Cloudy
6:00 PM 57.2 °F 50.0 °F 77% 30.15 in 6.2 mi East 9.2 mph - N/A   Mostly Cloudy
6:23 PM 57.2 °F 50.0 °F 77% 30.15 in 6.2 mi ENE 11.5 mph - N/A   Mostly Cloudy
7:00 PM 58 °F 50 °F 67% 30.17 in 12 mi ENE 9.2 mph - -   Overcast
7:00 PM 57.2 °F 50.0 °F 77% 30.15 in 6.2 mi ENE 9.2 mph - N/A   Mostly Cloudy
7:30 PM 57.2 °F 50.0 °F 77% 30.15 in 6.2 mi ENE 8.1 mph - N/A   Mostly Cloudy
8:00 PM 54 °F 47 °F 69% 30.18 in 12 mi NNE 4.6 mph - -   Mostly Cloudy
8:00 PM 55.4 °F 46.4 °F 72% 30.15 in 6.2 mi NE 5.8 mph - N/A   Mostly Cloudy
8:30 PM 53.6 °F 46.4 °F 77% 30.15 in 6.2 mi NW 5.8 mph - N/A   Scattered Clouds
9:00 PM 52 °F 45 °F 69% 30.18 in 12 mi NNW 9.2 mph - -   Partly Cloudy
9:00 PM 51.8 °F 44.6 °F 76% 30.15 in 6.2 mi NW 9.2 mph - N/A   Scattered Clouds
9:30 PM 51.8 °F 44.6 °F 76% 30.18 in 6.2 mi NNW 9.2 mph - N/A   Scattered Clouds
10:00 PM 52 °F 44 °F 64% 30.19 in 12 mi NNW 9.2 mph - -   Partly Cloudy
10:00 PM 51.8 °F 44.6 °F 76% 30.18 in 6.2 mi NNW 8.1 mph - N/A   Scattered Clouds
10:30 PM 51.8 °F 42.8 °F 71% 30.15 in 6.2 mi NNW 9.2 mph - N/A   Mostly Cloudy
11:00 PM 51 °F 43 °F 66% 30.18 in 12 mi NNW 10.4 mph - -   Scattered Clouds
11:00 PM 51.8 °F 42.8 °F 71% 30.15 in 6.2 mi NNW 9.2 mph - N/A   Mostly Cloudy
11:30 PM 50.0 °F 42.8 °F 76% 30.18 in 6.2 mi NNW 9.2 mph - N/A   Mostly Cloudy